Details From UUWW - Vnukovo
To URMM - Mineralnyye Vody
Flight Number -
Tags Generated
Created
Modified
Stats Distance 719 nm / 1,332 km
Max Altitude 0 ft / 0 m
Waypoints 5
Social Downloads 0
Likes 0
Share VATSIM

Download

Looking for another format? Having issues loading an existing format? Contact us
Advertisement - Login to hide

Notes

Generated

Route

UUWW USMAN MOROG MD URMM

ID Type Via Altitude Latitude Longitude Leg Dist Tot Dist Heading (true) Name
O UUWW APT - 0 ft / 0 m 55.58804˚ 37.24603˚ - 0 nm - -
USMAN FIX - 0 ft / 0 m 52.03333˚ 39.73333˚ 230 nm 230 nm 157° / 159° -
MOROG FIX - 0 ft / 0 m 48.35000˚ 41.80000˚ 235 nm 465 nm 159° / 161° -
MD NDB - 0 ft / 0 m 44.25833˚ 43.00833˚ 250 nm 716 nm 168° / 169° MINERALNYYE VODY NDB
O URMM APT - 0 ft / 0 m 44.23442˚ 43.06126˚ 2 nm 719 nm 122° / 122° -

Altitude Profile

Advertisement - Login to hide

Weather


0- 5 10 15 20 25 30 35+ Temperature / ° C

Clouds and Precipitation
Forecast for 2018-05-21 06:00 UTC. Updated 2 hours ago

Ground ~20,000 ft ~40,000 ft Winds

UUWW

Details ICAO UUWW (VKO)
Name VNUKOVO
Region Russia
Timezone Europe/Moscow (UTC+3.0)
Stats Elevation 685 ft / 209 m (AMSL)
Location 55.596061° 37.267664°
Runways 2
Magnetic Variation 11.014° E

METAR

UUWW 210730Z 06006MPS CAVOK 16/02 Q1027 R01/000070 R06/000070 NOSIG

Decode

TAF

TAF UUWW 210454Z 2106/2206 05007MPS CAVOK TX19/2113Z TN07/2202Z BECMG 2116/2118 07002MPS

Decode

Departure Runways

ID Width Length Bearing (true) Bearing (mag) Surface Threshold Offset Overrun Length
02 197 ft / 60 m 9,993 ft / 3,046 m 23.36° 12.35° Asphalt 0 ft / 0 m 140 ft / 43 m
06 197 ft / 60 m 9,785 ft / 2,982 m 68.26° 57.25° Asphalt 0 ft / 0 m 250 ft / 76 m
20 197 ft / 60 m 9,993 ft / 3,046 m 203.37° 192.36° Asphalt 0 ft / 0 m 150 ft / 46 m
24 197 ft / 60 m 9,785 ft / 2,982 m 248.29° 237.28° Asphalt 0 ft / 0 m 260 ft / 79 m

URMM

Details ICAO URMM (MRV)
Name MINERALNYYE VODY
Region Russia
Timezone Europe/Moscow (UTC+3.0)
Stats Elevation 1,054 ft / 321 m (AMSL)
Location 44.225073° 43.081891°
Runways 1
Magnetic Variation 7.425° E

METAR

URMM 210730Z 29008MPS 9999 NSC 23/14 Q1016 R30/090070 NOSIG RMK QFE733/0978

Decode

TAF

TAF URMM 210458Z 2106/2206 28003G08MPS 9999 SCT030 TX26/2112Z TN14/2202Z TEMPO 2106/2118 30005G12MPS 3100 -SHRA BKN011 BKN030CB TEMPO 2118/2206 3100 -SHRA BR BKN011 BKN030CB

Decode

Destination Runways

ID Width Length Bearing (true) Bearing (mag) Surface Threshold Offset Overrun Length
12 197 ft / 60 m 12,766 ft / 3,891 m 122.28° 114.86° Concrete 0 ft / 0 m 240 ft / 73 m
30 197 ft / 60 m 12,766 ft / 3,891 m 302.31° 294.89° Concrete 0 ft / 0 m 250 ft / 76 m

Popular Alternatives